Regional Weather Roundup
Issued by NWS

Home | Current Version | Previous Version | Graphics & Text | Print | Product List | Glossary On
Versions: 1 2 3 4 5 6 7 8 9 10 11 12 13 14 15 16 17 18 19 20 21 22 23 24 25 26 27 28 29 30 31 32 33 34 35 36 37 38 39 40 41 42 43 44 45 46 47 48 49 50
000
ASUS43 KOAX 132102
RWRNE

WEATHER ROUNDUP FOR NEBRASKA
NATIONAL WEATHER SERVICE OMAHA NE
300 PM CST WED DEC 13 2017

NOTES: SATELLITE DATA IS BEING USED TO AUGMENT CLOUD COVER ABOVE
       12000 FEET.
       "FAIR" INDICATES FEW OR NO CLOUDS BELOW 12,000 FEET WITH NO
       SIGNIFICANT WEATHER AND/OR OBSTRUCTIONS TO VISIBILITY.


NEZ001>004-019>022-054>056-132200-
NEBRASKA PANHANDLE

CITY           SKY/WX    TMP DP  RH WIND       PRES   REMARKS
SCOTTSBLUFF    SUNNY     52  14  22 NW22G31   30.02F
ALLIANCE       SUNNY     48  16  27 N25G37    29.98F
CHADRON        SUNNY     48  18  30 NW20G29   30.01S
GORDON         FAIR      47  21  35 NW25G31   29.98R
KIMBALL        SUNNY     48  14  25 NW16G28   30.03F
SIDNEY         CLOUDY    50  14  23 N21G30    30.01F
$$

NEZ057>060-069>072-079>082-132200-
SOUTHWEST NEBRASKA

CITY           SKY/WX    TMP DP  RH WIND       PRES   REMARKS
NORTH PLATTE   SUNNY     50  21  32 NW17G32   29.96R
IMPERIAL       SUNNY     53  16  23 NW21G30   29.97F
LEXINGTON      SUNNY     51  21  30 NW28G33   29.94R
MCCOOK         SUNNY     55  16  21 NW23      29.95S
OGALLALA       SUNNY     51  17  26 N17G24    29.97F
$$

NEZ005>010-023>029-035>040-094-132200-
NORTH CENTRAL NEBRASKA

CITY           SKY/WX    TMP DP  RH WIND       PRES   REMARKS
VALENTINE      SUNNY     49  26  41 NW22G32   29.93S
AINSWORTH      SUNNY     46  29  51 NW25G35   29.91F
BROKEN BOW     SUNNY     50  25  37 NW20G35   29.91F
O`NEILL        SUNNY     47  29  50 NW23G33   29.88S
ORD            SUNNY     50  27  40 NW26G35   29.89R
THEDFORD       SUNNY     48  25  40 N28       29.94F
$$

NEZ041-046>049-061>064-073>077-083>087-132200-
SOUTH CENTRAL NEBRASKA

CITY           SKY/WX    TMP DP  RH WIND       PRES   REMARKS
GRAND ISLAND   SUNNY     52  27  38 NW22G30   29.88F
AURORA         SUNNY     51  26  36 NW26G33   29.87S
HASTINGS       SUNNY     52  23  32 NW23G35   29.89R
HEBRON         SUNNY     55  24  29 N20G30    29.87R
HOLDREGE       SUNNY     52  24  34 NW17G26   29.92R
KEARNEY        SUNNY     51  24  34 N22G33    29.91R
YORK           SUNNY     50  27  40 NW15G25   29.86R
$$

NEZ011>018-030>034-042>045-132200-
NORTHEAST NEBRASKA

CITY           SKY/WX    TMP DP  RH WIND       PRES   REMARKS
NORFOLK        MOSUNNY   47  29  49 NW23G33   29.81R
ALBION         SUNNY     50  29  44 NW23G31   29.86R
BLAIR          SUNNY     48  31  52 NW28G36   29.79R
COLUMBUS       SUNNY     50  28  42 NW23      29.84R
FREMONT        SUNNY     49  29  46 NW23G35   29.83R
TEKAMAH        PTSUNNY   45  28  51 NW30G43   29.83R
WAYNE            N/A    N/A N/A N/A MISG        N/A
$$

NEZ050>053-065>068-078-088>093-132200-
SOUTHEAST NEBRASKA

CITY           SKY/WX    TMP DP  RH WIND       PRES   REMARKS
LINCOLN        SUNNY     53  28  38 NW23G32   29.85R
OMAHA EPPLEY   MOSUNNY   49  29  46 N22G35    29.79R
BEATRICE       SUNNY     54  28  36 NW28G33   29.84S
FALLS CITY     SUNNY     55  28  35 NW22      29.78R
NEBRASKA CITY  SUNNY     52  30  43 NW22G32   29.81R
PLATTSMOUTH    SUNNY     50  31  47 NW23G30   29.80R
$$

NEZ044-045-051>053-067-132200-
OMAHA AREA

CITY           SKY/WX    TMP DP  RH WIND       PRES   REMARKS
OMAHA EPPLEY   MOSUNNY   49  29  46 N22G35    29.79R
BLAIR          SUNNY     48  31  52 NW28G36   29.79R
FREMONT        SUNNY     49  29  46 NW23G35   29.83R
MILLARD        SUNNY     51  32  47 NW20G26   29.81R
OFFUTT AFB     SUNNY     50  29  44 NW24G33   29.79R
PLATTSMOUTH    SUNNY     50  31  47 NW23G30   29.80R
WAHOO          FAIR      51  28  41 NW17G28   29.82R
$$




USA.gov is the U.S. government's official web portal to all federal, state and local government web resources and services.